Temp
12 12 11 12 12 11 11 11 12 12 12 13 13 14 14 14 14 14 14 13 14 15 15 15 15 15 14 14 14 14 14 14 14 14 14 14 13 13 13 13 13 13 13 13 13 13 13 13 13 12 12 12 11 11 11 10 10 10 10 10 9 9 9 9 9 9 9 9 9 9 9 10 10 10 10 10 10 10 10 10 10 10 10 10 9 9
10 10 10 11 11 11 10 11 11 12 12 13 13 13 13 13 13 13 12 12 13 14 14 14 14 14 14 14 14 14 13 13 13 13 13 13 13 13 13 13 13 13 13 13 13 13 12 12 12 12 11 11 11 10 10 10 10 10 10 9 9 9 9 9 9 9 9 9 9 9 9 10 10 10 10 10 9 9 9 9 9 9 9 9 9 9
9 9 10 10 10 10 10 10 11 11 12 13 13 13 13 13 12 12 11 12 12 13 14 14 14 13 13 13 13 13 13 13 13 12 12 12 12 12 12 12 12 12 12 12 12 12 12 12 11 11 11 10 10 10 10 10 10 10 10 9 9 9 9 9 9 9 9 9 9 9 9 9 9 9 9 9 9 9 9 9 9 9 9 9 9 9
9 9 9 9 10 10 10 10 10 11 11 12 13 13 13 12 12 11 11 11 12 13 13 13 13 13 13 13 13 13 13 12 12 12 12 12 12 12 11 11 11 12 12 12 11 11 11 11 11 10 10 10 10 10 10 10 10 10 9 9 9 9 9 9 9 9 9 9 9 9 9 9 9 9 9 9 9 9 9 9 9 9 9 9 9 9
8 9 9 9 10 10 10 10 10 10 10 11 11 12 12 11 11 11 11 11 12 12 13 13 13 13 13 13 13 13 12 12 12 12 12 11 11 11 11 11 11 11 11 11 11 11 11 10 10 10 10 10 10 9 9 9 9 9 9 9 9 9 9 9 9 9 9 9 9 9 9 9 9 9 9 9 8 8 8 8 9 9 9 9 9 9
9 9 9 9 9 9 9 10 10 10 10 10 10 10 11 11 11 10 10 11 11 12 12 12 12 13 13 13 13 12 12 12 12 11 11 11 11 11 11 11 11 10 10 10 10 10 10 9 9 9 9 9 9 9 9 9 9 9 9 9 9 9 9 9 9 9 9 9 9 9 9 9 9 9 9 9 9 8 8 8 9 9 9 9 9 9
9 9 9 9 9 9 9 9 9 9 9 9 9 9 10 10 10 10 10 10 11 12 12 12 12 13 13 13 13 12 12 11 11 11 11 11 11 10 10 10 10 10 10 10 10 9 9 9 8 8 8 9 9 9 9 9 9 9 9 9 9 9 8 8 8 8 8 9 9 9 9 9 9 9 9 9 9 9 9 8 9 9 9 9 9 9
9 8 8 8 8 8 8 9 9 9 9 9 9 9 9 9 9 9 9 10 10 11 11 11 12 12 13 13 12 12 11 11 11 10 10 10 10 10 10 10 10 10 9 9 9 9 8 8 8 8 8 8 8 8 8 9 9 9 9 9 9 8 8 8 8 8 8 8 8 8 8 8 8 9 9 9 9 9 9 8 8 8 8 8 8 8
9 8 8 8 8 8 8 8 8 8 9 9 9 8 8 8 8 8 8 8 9 9 10 11 11 12 12 12 11 11 11 10 10 10 10 10 10 10 10 9 9 9 9 9 9 8 8 8 8 8 8 8 8 8 8 8 8 8 8 8 8 8 8 8 8 8 8 8 8 8 8 8 8 8 8 8 8 9 9 9 8 8 8 8 8 7
9 8 8 8 8 8 7 7 7 8 8 8 8 8 8 8 7 7 7 7 7 8 9 10 11 12 11 11 11 10 10 10 10 10 10 10 10 9 9 9 9 9 9 8 8 8 8 8 8 8 8 8 8 8 8 8 8 8 8 8 8 8 8 8 8 8 8 8 8 8 8 8 8 8 8 8 8 8 8 8 8 8 8 7 7 7
9 8 8 7 7 8 8 7 7 7 7 7 8 8 8 8 8 7 7 6 6 7 8 9 10 11 11 10 10 10 9 9 9 9 9 9 9 9 9 9 9 9 9 8 8 8 8 8 8 8 8 8 8 8 8 8 8 8 8 8 8 8 8 8 8 8 8 8 7 7 7 7 8 8 8 8 7 7 7 8 8 8 7 7 7 7
9 8 8 8 7 7 7 7 7 7 7 7 7 7 7 8 8 8 8 7 7 7 7 8 9 10 10 10 9 9 9 9 9 9 9 9 9 9 9 9 9 9 8 8 8 8 8 8 8 8 9 8 8 8 8 8 8 8 8 8 8 8 8 8 8 8 8 8 7 7 7 7 8 8 8 7 7 7 7 7 7 7 7 7 7 7
9 9 8 8 7 7 7 6 6 6 6 7 7 7 7 7 8 8 8 8 7 7 7 8 8 8 9 9 9 9 8 8 8 8 9 8 8 8 8 8 8 8 8 8 8 8 8 8 8 9 9 8 8 8 8 8 8 8 8 8 8 8 8 8 8 8 8 7 7 7 7 7 7 7 7 7 7 7 7 7 7 7 7 7 7 7
9 9 8 8 8 7 7 6 6 6 6 7 8 8 8 8 8 8 9 8 8 7 7 7 7 7 7 8 8 8 8 8 8 8 8 8 8 8 8 8 8 8 8 8 8 8 8 8 8 8 8 8 8 8 8 8 8 8 8 8 8 8 8 8 7 7 7 7 7 7 7 7 7 7 7 7 7 7 7 7 7 7 7 7 7 6
9 9 8 8 8 7 7 6 6 7 7 8 8 8 8 8 8 8 8 8 7 7 6 6 6 6 6 7 7 8 8 8 8 7 8 8 8 8 8 8 8 8 8 8 8 8 8 8 8 8 8 8 8 8 8 7 7 7 7 7 7 7 7 7 7 7 6 6 6 7 7 7 7 7 6 6 7 7 7 6 7 7 6 6 6 6
9 9 9 9 8 8 7 7 7 7 8 8 8 8 8 8 8 8 8 7 6 6 6 5 5 4 5 6 6 7 7 7 7 7 7 7 7 7 8 8 8 8 8 8 8 8 8 8 8 8 8 8 8 8 8 7 7 7 7 7 7 7 7 7 7 6 6 6 6 6 6 6 6 6 6 6 6 6 6 6 6 6 6 6 6 6
10 10 10 9 9 8 7 7 7 8 8 8 8 8 8 8 8 8 8 7 6 6 6 6 6 5 5 5 5 6 7 7 7 7 7 7 7 7 7 8 8 7 7 7 7 7 8 8 8 8 8 8 8 8 8 7 7 7 7 7 7 7 6 6 6 6 6 6 6 6 6 6 6 6 6 6 6 6 6 6 5 5 5 5 5 5
10 10 10 10 9 8 8 7 8 8 8 8 8 8 8 8 8 8 7 7 6 6 6 7 7 7 7 6 5 6 6 7 7 6 6 6 7 7 7 7 7 7 7 7 7 7 7 7 8 8 8 8 8 8 7 7 7 7 7 7 6 6 6 6 6 6 6 6 6 6 6 6 6 6 6 6 6 6 6 5 5 5 5 5 5 5
11 11 11 11 10 9 8 8 8 8 8 8 8 8 8 8 8 8 7 7 7 7 7 7 8 8 8 7 7 7 6 7 7 6 6 6 6 6 6 7 7 7 7 7 7 7 7 7 7 8 8 8 8 8 7 7 7 7 7 6 6 6 6 6 6 6 6 6 6 6 6 6 6 6 6 6 6 6 6 5 5 5 5 5 5 5
11 11 11 11 10 9 8 8 8 8 8 8 8 8 8 7 7 7 7 7 7 7 7 7 8 8 8 8 7 7 7 7 6 6 6 5 5 6 6 6 6 6 6 7 7 7 7 7 7 7 8 8 8 8 7 7 7 7 7 6 6 6 6 6 6 6 6 6 6 6 6 5 6 6 6 6 6 6 5 5 5 5 5 5 5 5
12 11 11 11 10 10 9 9 9 9 9 9 9 8 8 7 7 7 7 7 7 7 7 8 8 8 8 8 7 7 7 6 6 6 5 5 5 5 6 6 6 6 6 6 7 7 7 7 7 7 7 8 8 8 7 7 7 7 7 6 6 6 6 6 6 6 6 6 6 6 5 5 5 5 5 6 5 5 5 5 5 4 4 4 4 4
13 12 11 11 11 10 10 9 9 9 9 9 9 8 8 7 7 7 7 7 7 7 7 8 8 8 8 8 8 7 7 6 6 6 5 4 4 4 5 6 6 6 6 6 6 7 7 7 7 7 7 7 7 7 7 7 7 6 6 6 6 6 6 5 5 5 5 6 6 5 5 5 5 5 5 5 5 5 4 4 4 4 4 4 4 4
13 12 11 11 11 11 11 10 10 9 9 10 10 9 9 8 8 8 8 8 8 8 7 7 7 6 7 7 7 7 6 6 6 6 6 5 4 4 5 5 5 5 5 6 6 6 7 7 7 7 7 7 7 7 7 7 6 6 6 6 6 5 5 5 5 5 5 5 5 5 5 5 5 5 5 5 4 4 4 4 4 4 4 4 4 4
12 12 11 11 11 11 11 11 10 10 10 10 11 11 10 10 9 9 9 8 8 8 7 6 5 5 5 5 5 5 5 5 6 6 6 5 4 4 4 5 5 5 5 5 5 6 6 7 7 7 6 7 7 7 7 6 6 6 6 5 5 5 5 5 5 5 5 5 5 5 5 5 4 4 4 4 4 4 4 4 4 4 4 4 4 4
12 12 11 11 11 12 12 12 11 11 10 10 10 10 10 9 9 9 9 8 7 7 6 5 4 3 3 3 4 4 5 5 5 6 6 5 4 3 4 4 4 4 4 4 5 5 6 6 6 6 6 6 6 6 6 6 6 5 5 5 5 5 5 5 5 5 5 5 5 5 5 4 4 4 4 4 4 4 4 4 4 4 4 4 4 4
12 12 12 11 12 12 13 13 12 12 11 11 10 9 9 9 8 8 7 7 6 6 5 4 4 3 2 2 2 3 4 4 5 6 6 5 3 2 3 4 4 4 3 4 4 5 5 6 6 6 6 6 5 5 5 5 5 5 5 5 5 5 5 5 5 5 5 5 5 5 4 4 4 4 3 3 3 3 3 3 4 4 4 4 3 3
12 12 12 12 12 12 13 13 13 12 12 12 11 10 9 9 8 7 6 6 5 5 5 5 4 3 2 2 2 3 3 4 5 6 6 5 3 2 2 3 4 3 3 3 3 4 5 5 5 5 5 5 5 5 5 5 5 5 5 4 4 4 4 4 4 5 5 5 5 5 4 4 3 3 3 3 3 3 3 3 3 3 3 3 3 3
12 12 12 12 12 12 12 12 12 12 12 11 11 10 10 9 8 6 5 5 5 5 6 6 5 4 3 3 3 2 3 4 4 5 5 5 4 2 2 3 3 3 2 2 2 3 4 4 4 5 5 5 5 5 4 4 4 4 4 4 4 4 4 4 4 5 5 5 5 4 4 3 3 3 3 3 3 3 3 3 3 3 3 3 3 3
12 12 12 12 12 12 12 12 12 12 11 11 10 10 10 10 9 8 7 6 6 6 6 6 6 5 4 3 2 2 2 3 4 5 5 5 4 2 2 2 3 3 2 1 1 2 2 3 3 4 4 4 4 4 4 4 4 4 4 4 4 4 4 4 4 5 5 5 4 4 3 3 3 3 3 3 3 3 3 3 3 3 3 3 3 3
12 12 12 12 12 11 11 11 11 11 11 11 11 11 11 11 10 10 9 7 6 6 6 6 6 5 4 3 2 2 2 2 3 4 5 5 3 2 2 2 2 3 3 2 2 1 1 1 2 3 3 4 4 4 4 4 4 4 4 4 4 4 4 4 4 5 4 4 4 4 3 3 3 3 3 3 3 3 3 3 3 3 3 3 3 3
11 11 11 11 11 11 11 11 11 11 10 10 10 11 11 11 11 10 9 8 7 7 7 6 6 5 4 3 3 3 3 2 3 4 5 4 3 2 2 2 2 3 3 3 3 2 1 0 1 2 2 3 3 3 3 3 3 3 3 4 4 4 4 4 4 4 4 4 4 3 3 3 3 3 3 3 3 3 3 3 3 3 3 3 3 3
10 10 10 10 10 10 10 10 10 10 10 9 10 10 10 10 10 10 9 9 8 7 7 6 5 5 4 5 5 5 4 3 3 4 5 4 3 2 2 2 2 3 3 4 5 5 3 1 0 1 1 2 2 3 3 3 3 3 3 3 4 4 4 4 4 4 3 3 3 3 3 3 3 3 3 3 3 3 3 3 3 3 3 3 2 2
9 9 9 9 9 9 9 9 9 9 9 8 8 8 8 8 9 9 9 8 8 8 7 6 5 5 5 5 5 5 4 3 3 4 5 4 3 2 2 2 2 2 3 4 5 5 4 2 0 -0 0 1 1 2 2 2 3 3 3 3 3 3 3 3 3 3 3 3 3 3 3 3 3 3 3 3 3 3 3 3 3 3 2 2 2 2
8 8 8 8 8 8 8 8 8 8 7 7 7 7 7 7 7 7 7 7 7 7 7 6 6 5 5 5 4 3 3 3 3 4 4 4 3 2 2 2 2 2 3 3 4 4 3 2 1 -0 -1 -0 0 1 2 2 2 2 2 3 3 3 3 3 3 3 3 3 3 3 3 3 3 3 3 3 3 3 3 3 2 2 2 2 2 2
7 7 7 6 6 6 6 6 6 6 6 6 6 6 6 6 6 6 6 6 6 6 6 6 6 5 5 4 3 2 2 2 3 3 4 5 4 3 2 2 2 2 2 2 3 2 2 1 1 0 -0 -1 -1 0 1 1 2 2 2 2 2 3 3 3 2 2 2 2 2 2 2 2 2 2 2 3 3 3 3 2 2 2 2 2 2 1
5 5 5 5 5 5 5 5 5 5 5 5 5 5 5 5 6 6 6 6 6 6 6 5 5 5 5 5 4 3 2 3 3 3 4 5 4 3 2 2 2 3 3 2 2 2 2 1 1 1 1 -0 -1 -1 -1 0 1 1 1 2 2 2 2 2 2 2 2 2 2 2 2 2 2 2 2 2 2 2 2 2 2 2 2 2 1 1
4 4 4 4 4 4 3 3 3 3 3 3 4 4 4 5 5 5 5 5 5 5 5 5 5 5 5 5 4 4 3 3 3 3 4 4 4 4 3 2 3 3 3 3 2 2 2 2 1 1 1 1 0 -1 -1 -1 -0 0 0 1 1 1 1 1 1 1 1 1 1 2 2 2 2 2 2 2 2 2 2 2 2 2 2 1 1 1
4 3 3 3 3 3 3 2 2 2 2 3 3 3 4 4 4 4 4 4 4 4 4 4 4 4 4 4 4 4 3 3 3 3 3 4 4 4 3 3 3 3 3 3 3 3 2 2 2 2 2 2 1 -0 -1 -1 -1 -1 -1 -0 0 0 0 0 1 1 1 1 1 2 2 2 2 2 2 2 2 2 2 2 2 1 1 1 1 1
3 3 2 2 2 2 2 2 2 2 2 2 2 3 3 3 3 3 3 4 4 4 4 4 4 4 4 4 4 3 3 3 3 3 3 3 4 4 4 3 3 3 3 4 4 4 3 3 3 2 2 1 0 -0 -1 -1 -1 -1 -2 -1 -1 -0 -0 0 0 1 1 1 1 1 1 1 1 1 1 1 1 1 1 1 1 1 1 1 1 1
3 2 2 2 2 2 1 1 1 1 1 1 1 2 2 2 2 2 3 3 3 3 3 3 3 3 3 3 3 2 2 2 3 3 3 3 4 4 4 3 3 3 3 3 4 4 4 4 3 3 2 1 0 -1 -1 -1 -1 -1 -1 -1 -1 -1 -0 -0 0 1 1 1 1 1 1 1 1 1 1 1 1 1 1 1 0 0 0 0 0 0
2 2 1 1 1 1 0 0 0 0 0 1 1 1 1 2 2 2 2 2 2 2 2 3 2 2 2 1 1 1 2 2 2 2 3 3 3 3 3 3 3 3 3 3 3 4 4 4 3 3 2 1 0 -0 -1 -1 -1 -1 -1 -1 -1 -1 -1 -0 0 0 0 0 0 0 0 0 0 1 1 1 1 1 1 1 0 0 0 0 0 -0
2 1 0 -0 -0 -1 -1 -1 -1 -0 -0 0 1 1 1 1 1 1 1 1 1 1 1 1 1 0 -0 -0 -0 0 0 1 1 1 2 2 2 3 3 3 3 3 3 3 3 3 3 3 3 2 2 1 0 -0 -1 -1 -1 -1 -0 -1 -1 -1 -1 -1 -1 -0 -0 -0 -0 -0 -0 0 0 0 0 0 0 0 0 0 0 0 0 -0 -0 -0
1 0 -0 -1 -1 -1 -1 -1 -1 -1 -0 -0 -0 -0 0 1 1 1 0 -0 -1 -0 0 0 0 -1 -2 -2 -2 -2 -1 -0 0 1 1 1 2 2 2 2 2 3 3 3 3 2 2 3 2 2 2 2 1 -0 -1 -1 -1 -1 -1 -1 -1 -1 -1 -2 -1 -1 -1 -1 -1 -0 -0 -0 -0 -0 -0 -0 -0 -0 -0 -0 -0 -0 -0 -0 -0 -0
-0 -1 -1 -2 -2 -2 -1 -1 -1 -1 -1 -0 -1 -1 -0 0 0 0 -0 -1 -1 -1 -1 -1 -1 -1 -2 -3 -3 -3 -2 -1 -1 0 0 1 1 1 1 2 2 2 3 3 2 2 2 2 2 2 2 2 1 -0 -1 -1 -1 -1 -1 -1 -1 -1 -2 -2 -2 -2 -2 -1 -1 -1 -1 -1 -1 -1 -0 -0 -0 -0 -0 -0 -0 -0 -0 -0 -0 -1
-1 -2 -2 -2 -2 -2 -1 -1 -1 -1 -1 -1 -1 -1 -1 -0 -0 -0 -1 -1 -1 -1 -1 -1 -1 -2 -3 -3 -4 -4 -3 -3 -2 -1 -0 -0 0 1 1 1 1 2 2 3 3 2 2 1 1 1 1 1 1 -0 -1 -1 -2 -2 -2 -1 -1 -1 -2 -2 -2 -2 -2 -2 -1 -1 -1 -1 -1 -1 -1 -1 -1 -1 -1 -1 -0 -0 -0 -1 -1 -1
-2 -2 -2 -2 -2 -1 -1 -1 -1 -1 -1 -1 -1 -1 -1 -1 -1 -1 -1 -1 -1 -2 -1 -1 -1 -1 -2 -3 -3 -4 -4 -3 -3 -2 -1 -1 -0 0 1 1 1 2 2 2 2 2 2 1 1 1 0 0 -0 -1 -1 -1 -2 -2 -2 -2 -2 -2 -2 -2 -2 -2 -2 -2 -1 -1 -1 -1 -1 -1 -1 -2 -2 -2 -1 -1 -1 -1 -1 -1 -1 -1
-2 -2 -2 -2 -2 -2 -2 -1 -1 -1 -1 -2 -2 -2 -1 -1 -1 -1 -1 -1 -1 -1 -1 -1 -1 -1 -2 -2 -3 -3 -3 -4 -4 -3 -2 -2 -1 -0 0 0 1 1 1 1 1 1 1 1 1 0 0 -0 -1 -1 -2 -2 -2 -2 -2 -2 -2 -2 -2 -2 -2 -2 -2 -1 -1 -1 -1 -1 -1 -1 -2 -2 -2 -2 -2 -1 -1 -1 -1 -1 -1 -1
-2 -2 -2 -2 -2 -2 -2 -2 -1 -1 -2 -2 -2 -2 -2 -1 -1 -1 -1 -1 -1 -1 -1 -1 -1 -2 -2 -2 -2 -2 -3 -3 -4 -4 -3 -3 -2 -1 -1 -0 0 0 0 1 1 0 0 -0 -0 0 0 -0 -1 -2 -2 -2 -2 -2 -2 -2 -2 -3 -3 -3 -3 -2 -2 -2 -2 -2 -2 -1 -1 -1 -2 -2 -2 -2 -2 -2 -2 -1 -1 -1 -1 -1
-1 -2 -2 -2 -2 -2 -2 -1 -1 -1 -2 -2 -2 -2 -2 -2 -1 -1 -1 -1 -1 -1 -1 -1 -1 -2 -2 -2 -2 -2 -3 -3 -4 -4 -4 -3 -3 -2 -1 -1 -1 -1 -1 -1 -0 -1 -1 -1 -1 -1 -1 -1 -1 -2 -2 -3 -3 -2 -2 -3 -3 -3 -3 -3 -3 -2 -2 -2 -2 -2 -2 -1 -1 -1 -1 -2 -2 -2 -2 -2 -2 -2 -2 -2 -1 -2
-2 -2 -2 -2 -1 -1 -1 -1 -1 -2 -2 -2 -2 -2 -2 -2 -1 -1 -1 -1 -1 -1 -1 -1 -1 -1 -2 -2 -2 -2 -3 -3 -3 -4 -4 -4 -3 -2 -2 -2 -1 -1 -2 -2 -2 -2 -2 -2 -2 -1 -1 -1 -1 -2 -2 -3 -3 -3 -3 -3 -3 -3 -3 -4 -3 -3 -3 -2 -2 -2 -2 -2 -2 -2 -1 -2 -2 -2 -2 -2 -2 -2 -2 -2 -2 -2
-2 -2 -2 -1 -1 -1 -1 -1 -1 -2 -2 -2 -2 -2 -2 -2 -1 -1 -1 -1 -1 -1 -1 -1 -1 -1 -2 -2 -2 -2 -3 -3 -3 -4 -4 -4 -3 -3 -3 -2 -2 -2 -2 -2 -2 -2 -2 -2 -3 -3 -2 -2 -2 -2 -2 -3 -3 -3 -3 -3 -3 -3 -4 -4 -4 -3 -3 -3 -3 -2 -2 -2 -2 -2 -2 -2 -2 -2 -2 -2 -2 -2 -3 -3 -3 -3
Height
720 722 724 727 730 733 735 736 738 739 741 743 745 748 750 752 754 755 756 757 757 757 758 760 763 765 767 769 771 773 775 777 778 780 781 783 784 785 785 786 786 786 786 786 787 788 789 789 790 790 790 790 790 791 792 792 793 794 794 795 796 797 798 798 798 798 797 797 797 797 797 797 797 797 797 797 798 798 799 799 800 801 801 802 802 802
719 721 724 726 729 731 733 734 736 737 739 741 743 745 749 751 752 753 755 756 755 755 756 759 761 764 765 767 769 771 774 775 777 779 780 781 783 784 784 785 785 785 784 785 786 787 788 789 789 789 789 789 789 790 791 791 792 793 794 794 795 796 797 797 797 797 797 797 797 797 797 798 798 798 798 798 799 799 799 800 800 801 801 802 803 803
718 720 723 725 727 729 731 733 735 736 738 739 740 743 746 749 750 752 753 754 754 754 755 757 759 762 764 766 768 770 772 774 775 777 779 780 782 783 783 784 784 784 784 784 784 785 787 787 788 788 788 789 789 789 790 791 791 792 793 794 795 796 796 796 797 797 797 797 797 797 797 798 798 798 799 799 799 800 800 800 801 801 802 802 803 803
716 719 721 724 726 728 729 731 733 736 737 738 739 741 744 747 749 750 751 751 751 752 753 755 758 760 762 764 766 768 770 772 774 775 777 779 780 781 782 782 782 782 782 783 783 784 785 786 787 787 787 788 788 789 789 790 791 792 792 794 794 795 795 795 796 796 796 797 797 797 797 798 798 798 799 799 799 800 800 801 801 801 802 802 803 803
715 717 719 721 724 726 728 730 732 734 736 738 739 741 743 745 747 749 750 750 750 750 752 754 756 758 760 762 764 767 769 771 772 774 775 777 778 779 780 781 781 781 781 781 782 783 784 785 786 786 786 787 787 788 789 789 790 791 792 793 793 794 794 795 795 796 796 797 797 797 798 798 798 798 799 799 799 800 800 801 801 802 802 802 803 803
714 716 718 719 721 723 726 728 731 733 735 737 738 740 742 744 746 748 749 749 749 749 750 752 754 756 758 760 762 765 767 769 771 772 774 775 776 777 778 779 779 779 779 780 781 782 784 784 785 786 786 786 787 787 788 789 790 790 791 792 792 793 794 794 795 795 796 796 797 797 797 798 798 799 799 799 799 799 800 801 801 802 802 802 802 802
713 715 717 719 719 721 723 726 729 731 734 736 737 739 740 742 744 747 749 749 749 749 749 751 752 754 756 758 761 764 766 768 769 771 772 773 774 775 776 776 777 777 778 779 780 781 783 784 785 785 785 786 786 787 788 788 789 789 790 791 791 792 793 794 794 795 795 796 796 797 797 797 798 798 799 799 799 799 800 800 800 801 801 801 802 802
711 714 716 717 718 719 722 725 728 730 732 734 735 737 739 741 743 745 747 748 748 748 749 749 751 752 754 757 760 762 764 766 768 769 770 772 773 774 774 774 775 775 776 777 779 780 782 783 784 784 785 785 785 786 787 787 788 789 789 790 790 791 792 793 794 794 795 795 796 796 797 797 798 798 798 798 799 799 799 800 800 800 800 800 800 801
707 711 714 715 716 718 720 724 727 729 732 733 734 734 736 738 740 743 745 747 748 748 748 748 749 750 753 756 759 761 763 765 766 768 769 770 771 771 772 773 773 774 775 776 778 779 780 781 783 784 784 784 785 785 786 787 787 788 789 789 789 790 791 792 793 794 795 795 796 796 796 797 797 797 798 798 798 798 799 799 800 800 800 800 800 800
703 707 711 714 714 714 716 721 725 729 732 734 734 733 732 733 736 740 744 746 747 747 747 747 747 748 751 754 757 760 762 764 765 766 767 768 769 769 770 771 772 773 774 775 777 778 779 780 782 782 783 784 784 785 785 786 786 787 788 788 789 789 790 791 793 794 794 795 795 796 796 796 796 797 797 797 798 798 798 799 799 799 799 800 800 800
701 704 708 711 712 713 714 719 724 729 732 734 734 734 732 730 731 735 740 743 745 745 746 746 746 747 749 753 756 758 760 762 763 764 765 766 767 768 769 769 770 771 773 774 776 777 779 780 781 782 782 783 784 784 785 785 786 786 787 788 788 789 789 791 792 793 794 794 795 795 795 795 796 796 797 797 797 797 798 798 799 799 799 799 799 799
699 702 705 708 709 712 715 720 725 729 731 733 734 734 732 730 729 732 735 739 741 743 744 744 745 747 749 751 753 755 758 760 761 762 764 764 766 767 768 768 769 770 772 774 775 777 778 779 780 781 781 782 783 784 784 784 785 786 786 787 788 788 789 790 791 792 793 794 794 794 795 795 795 796 796 796 797 797 797 798 798 799 799 799 799 799
695 699 702 705 707 710 715 721 726 729 731 731 731 729 729 728 729 730 733 736 738 739 741 743 744 746 748 749 751 754 756 758 759 760 762 763 764 765 766 767 768 769 771 773 774 776 777 778 779 779 780 781 782 783 783 784 784 785 785 786 787 788 788 789 790 791 792 793 793 794 794 794 794 795 796 796 796 797 797 797 798 798 798 799 799 799
694 697 701 704 705 708 713 719 723 726 727 727 726 725 724 724 727 729 732 735 737 738 739 741 743 745 747 748 750 752 754 756 757 759 760 761 762 764 764 765 766 768 769 771 773 774 776 777 778 778 779 780 781 781 782 783 783 784 784 785 786 787 788 788 789 790 791 792 793 793 794 794 794 794 795 795 796 796 797 797 797 797 798 798 798 798
691 695 699 701 702 704 709 715 718 719 720 722 723 724 724 725 726 729 731 734 735 737 739 741 743 744 746 747 749 751 753 754 756 758 759 760 761 762 763 764 765 766 768 769 771 773 774 775 776 776 778 778 779 780 781 782 782 783 784 784 785 786 787 788 789 789 790 791 792 793 793 793 794 794 794 795 795 795 796 796 797 797 797 797 798 798
687 690 694 695 697 699 704 709 713 715 716 718 720 721 723 724 726 728 729 731 733 735 737 740 743 744 746 746 748 749 751 753 754 756 757 758 759 761 762 762 763 764 766 768 770 771 773 774 775 775 776 777 778 779 780 781 781 782 783 784 784 785 786 787 788 789 790 791 791 792 792 793 793 794 794 794 794 795 795 796 796 796 797 797 797 797
683 686 688 690 692 694 699 704 709 711 713 715 716 718 719 721 723 725 727 729 730 732 734 736 740 743 745 746 747 748 749 751 752 754 755 757 758 759 760 760 761 763 764 767 768 770 771 773 773 774 774 775 777 778 779 780 780 781 782 783 784 785 785 786 787 788 789 790 791 792 792 793 793 793 794 794 794 794 795 795 795 795 796 796 796 796
679 680 682 684 687 689 694 700 705 708 710 711 712 714 716 719 721 723 725 726 727 729 730 732 734 737 740 743 744 744 746 748 750 752 754 755 756 757 758 759 760 761 763 765 767 768 769 771 772 772 773 774 776 777 778 779 779 780 781 782 783 784 785 786 787 788 789 789 790 791 792 792 793 793 793 793 794 794 794 794 794 795 795 795 795 795
674 675 677 679 681 684 689 695 700 704 705 706 708 711 714 717 719 721 722 723 724 724 726 728 730 732 734 736 737 739 743 745 748 750 752 753 754 755 757 758 759 760 762 764 765 767 768 769 770 771 772 773 775 776 777 778 779 779 780 781 782 783 784 785 786 787 788 789 790 791 791 792 792 793 793 793 793 794 794 794 794 794 794 794 794 794
669 671 671 673 675 679 684 689 694 697 699 700 703 707 711 714 717 719 720 721 722 722 723 724 727 729 731 732 734 736 740 743 746 749 750 752 753 754 755 756 757 759 761 763 764 765 767 768 769 770 771 773 774 775 776 777 778 779 779 780 781 783 784 785 785 786 787 788 789 790 791 791 792 792 792 793 793 793 793 793 794 794 794 794 794 794
664 666 665 666 669 673 678 683 688 692 694 696 700 704 708 711 714 716 718 719 720 721 722 723 724 726 728 730 731 734 737 740 744 746 748 750 751 752 754 755 756 758 760 761 763 764 765 767 768 769 770 771 773 774 775 776 777 778 779 779 781 782 783 784 785 786 787 788 789 789 790 791 791 792 792 792 792 793 793 793 793 793 793 793 793 794
658 660 662 663 664 666 670 677 684 689 692 694 698 701 705 708 710 712 714 716 717 719 720 721 723 724 726 728 730 733 735 738 740 742 745 748 750 751 752 754 755 757 759 760 761 763 764 766 767 768 769 770 772 773 774 775 776 777 778 779 780 781 782 783 784 785 786 787 788 789 790 790 791 791 791 792 792 792 792 792 792 792 793 793 793 793
653 657 660 661 661 662 666 674 681 686 690 692 694 697 700 703 705 707 709 712 714 716 718 719 721 723 725 727 730 732 735 737 738 740 742 745 748 749 751 752 754 756 758 759 760 762 763 764 766 767 769 770 771 772 773 774 775 776 777 778 779 780 781 782 784 784 785 786 787 788 789 790 790 791 791 791 791 791 792 792 792 792 792 792 792 793
652 655 658 659 659 660 664 671 678 684 688 690 693 695 698 700 702 704 706 709 711 713 715 718 720 724 726 728 730 732 734 736 737 739 740 742 744 747 749 751 753 755 757 758 759 760 762 763 764 766 768 769 770 771 772 773 774 775 776 778 779 779 780 782 783 784 785 786 787 788 789 789 790 790 790 791 791 791 791 791 791 792 792 792 792 792
649 652 654 656 657 659 662 667 674 680 685 688 692 695 699 701 702 704 706 708 709 711 714 718 721 724 726 728 729 731 732 734 735 737 738 740 742 745 747 749 751 753 755 757 758 759 760 762 763 765 767 769 770 771 772 773 774 775 776 777 778 779 780 781 782 783 784 785 786 787 788 789 789 789 790 790 790 790 790 791 791 791 791 791 791 791
647 649 651 654 656 658 661 665 671 677 681 685 689 693 696 698 700 703 705 707 708 710 714 718 721 724 725 727 728 729 731 732 733 734 735 737 740 744 746 747 749 751 754 756 757 758 759 760 762 764 765 767 769 770 772 773 774 774 775 776 777 778 779 780 781 782 783 784 785 786 787 788 788 789 789 789 789 789 790 790 790 790 790 790 790 790
645 648 651 654 656 659 661 665 670 674 678 682 685 689 691 694 697 701 704 704 705 708 712 716 719 723 725 726 727 728 729 730 731 732 732 734 737 741 744 746 748 750 753 755 756 757 758 759 761 763 764 766 767 769 771 772 773 774 775 776 777 778 779 780 781 782 783 784 784 785 786 787 787 788 788 788 789 789 789 789 789 789 789 789 789 789
644 647 650 653 656 658 661 664 668 672 676 679 682 685 687 690 694 697 699 700 702 705 709 712 716 720 723 724 725 726 727 728 729 730 731 732 735 739 742 744 746 749 751 754 755 756 757 758 760 761 763 764 766 768 769 771 773 774 774 775 776 777 778 779 780 781 782 783 784 785 785 786 786 787 787 787 788 788 788 788 788 788 788 788 788 788
644 646 649 652 655 657 660 663 667 670 674 677 679 682 683 686 689 691 694 696 700 704 707 709 712 715 718 721 723 725 726 726 727 728 729 731 734 737 739 742 745 747 749 752 755 757 758 758 759 760 762 764 765 766 768 769 770 772 773 774 775 776 777 778 779 780 781 782 783 784 784 785 785 786 786 786 787 787 787 787 787 788 788 788 788 787
643 645 648 651 654 656 659 662 665 669 672 674 677 679 680 682 684 687 689 693 697 700 703 706 709 712 715 719 724 726 726 725 725 725 727 729 732 735 738 741 743 744 747 750 754 757 759 759 759 760 761 763 764 765 766 767 769 770 771 773 774 775 776 777 778 779 780 781 782 783 784 784 784 785 785 785 786 786 786 786 787 787 787 787 786 786
640 643 646 649 652 654 657 660 664 668 670 672 674 676 678 680 682 685 687 690 693 696 699 702 705 708 711 715 720 723 723 722 722 723 724 726 729 732 735 738 741 743 744 746 750 754 758 759 759 760 761 762 763 764 765 767 768 769 770 771 773 774 775 776 777 778 779 780 781 782 782 783 783 784 784 784 785 785 785 785 785 786 785 785 785 785
638 641 644 647 649 652 655 659 662 665 667 669 671 673 675 678 680 682 684 686 689 691 694 698 701 704 706 708 710 713 714 716 718 720 721 723 726 729 733 735 739 741 743 744 745 748 753 757 759 759 760 761 762 764 765 766 767 768 769 771 772 773 774 775 776 778 779 779 780 781 781 782 782 783 783 783 784 784 784 784 784 784 784 784 784 784
636 639 642 645 648 650 653 656 659 661 664 665 668 670 673 675 678 679 681 683 685 688 691 694 698 701 704 705 706 707 709 711 714 716 718 720 724 728 731 734 737 739 741 743 744 745 748 752 755 758 759 761 762 763 764 765 767 768 769 770 771 773 774 775 776 777 778 779 779 780 780 781 781 781 782 782 782 783 783 783 783 783 783 783 783 783
635 638 640 643 646 649 652 654 656 659 661 663 666 668 671 674 676 678 680 682 684 686 689 691 694 697 700 704 705 706 708 709 712 713 715 717 720 725 729 732 735 737 739 742 744 745 747 749 752 755 758 760 761 762 764 765 766 767 768 769 770 772 773 774 775 776 777 777 778 779 779 779 780 780 780 781 781 781 781 782 782 782 782 782 782 782
634 637 639 642 645 648 650 653 655 657 659 662 665 667 669 672 674 676 678 681 683 685 688 689 691 694 696 699 701 704 706 708 710 712 713 715 718 722 727 730 732 734 737 739 741 744 746 749 751 753 756 759 761 762 763 764 765 766 768 769 770 771 772 773 774 775 775 776 777 777 778 778 779 779 779 779 780 780 780 780 780 780 780 780 780 780
633 636 639 641 644 647 649 652 654 656 659 662 664 666 668 670 672 674 676 679 681 684 686 689 691 693 694 695 697 699 702 705 708 710 712 714 716 720 724 728 730 732 734 737 739 741 744 747 750 752 754 757 760 761 762 763 764 766 767 768 769 770 771 772 773 774 774 775 775 776 776 777 777 778 778 778 779 779 779 779 779 779 779 779 779 779
632 636 639 641 643 645 648 651 653 656 658 661 663 665 667 669 671 673 675 677 680 682 685 687 690 692 694 695 697 698 700 704 706 709 711 713 716 719 722 725 728 730 732 734 737 739 742 745 749 752 754 756 758 759 761 762 764 765 766 767 768 769 770 771 772 773 774 774 774 775 775 776 776 776 777 777 777 777 778 778 778 778 778 778 778 778
631 635 638 639 642 644 647 650 652 655 657 659 661 664 665 668 670 672 674 677 679 681 684 686 689 692 694 696 698 700 701 704 706 708 711 714 716 718 720 724 727 730 731 733 734 736 739 743 747 750 752 754 756 757 759 761 763 764 765 766 768 769 769 770 771 772 773 773 774 774 774 775 775 775 776 776 776 776 776 776 777 777 777 777 777 777
630 633 636 639 640 643 645 648 651 654 655 658 659 662 664 666 669 672 674 676 679 681 683 686 689 692 694 697 699 701 702 704 706 709 711 714 716 718 720 723 726 729 731 732 734 735 737 740 743 746 749 752 754 757 758 760 761 763 764 765 767 768 769 769 770 771 772 772 773 773 774 774 774 774 775 775 775 775 775 775 775 776 776 776 776 776
628 632 635 637 639 641 644 646 649 651 654 656 658 660 663 665 669 672 674 677 679 681 683 686 689 692 695 697 699 701 703 705 707 709 712 714 717 719 721 723 725 728 730 732 734 735 737 739 741 744 746 749 752 755 757 759 760 761 763 764 766 767 768 769 769 770 771 771 772 772 773 773 773 774 774 774 774 774 774 774 775 775 775 775 775 776
627 631 634 637 639 641 643 645 648 650 652 654 657 660 662 665 668 671 674 677 679 681 684 686 689 693 695 698 700 702 704 706 708 710 713 715 717 719 721 723 724 727 729 731 733 735 736 738 740 743 745 747 750 753 755 757 759 760 762 763 764 765 766 767 768 769 770 770 771 771 772 772 772 773 773 773 773 773 774 774 774 774 774 774 775 775
626 630 633 636 639 641 643 645 648 650 652 654 656 659 661 664 666 669 673 676 679 681 684 686 689 693 696 698 700 702 704 707 709 711 714 716 718 720 722 723 725 726 728 730 732 734 736 737 739 741 744 746 749 752 754 756 758 759 761 761 762 764 766 767 768 768 769 769 770 770 771 771 772 772 772 772 773 773 773 773 773 774 774 774 774 774
626 629 632 635 638 640 643 646 649 651 652 654 656 659 661 663 665 668 671 674 678 680 683 686 688 691 694 698 701 704 705 708 710 712 714 717 719 721 722 724 725 726 727 729 731 733 735 737 739 741 743 744 747 749 753 755 757 759 759 760 761 763 764 766 767 767 768 769 769 770 770 770 771 771 771 772 772 772 772 773 773 773 773 773 774 774
626 629 632 635 638 641 643 646 648 650 652 654 656 659 661 663 666 669 671 674 677 679 682 685 688 690 693 697 701 704 707 709 711 713 715 718 719 721 723 724 725 727 728 729 730 732 735 737 739 741 743 744 746 748 751 753 755 757 758 759 761 762 763 764 765 766 767 768 768 769 769 770 770 771 771 771 771 772 772 772 772 772 772 773 773 774
626 630 633 636 639 641 644 646 647 649 651 653 656 659 661 664 666 669 671 674 676 679 682 684 686 690 694 698 702 705 708 710 713 714 716 718 720 721 723 724 725 727 728 729 730 732 734 736 739 741 743 744 746 748 750 752 754 756 757 759 760 761 762 763 764 765 766 767 767 768 769 769 770 770 770 771 771 771 771 771 771 772 772 772 773 773
626 630 634 637 639 642 644 645 647 649 651 653 656 658 661 664 667 669 671 673 676 679 681 683 685 689 694 699 702 705 709 711 713 715 717 719 720 722 723 724 725 727 728 729 731 733 734 736 738 740 742 744 746 748 749 751 753 754 756 758 759 760 761 763 764 764 765 766 767 767 768 769 769 769 770 770 770 771 771 771 771 771 772 772 772 773
626 630 634 637 639 642 644 645 646 648 651 653 656 658 661 664 667 670 672 674 675 678 681 683 686 689 694 698 701 704 708 711 713 715 717 719 721 722 724 725 726 727 729 730 731 733 735 737 739 740 741 743 746 748 750 751 752 754 755 757 758 759 761 762 763 764 764 765 766 767 767 768 768 769 769 769 770 770 770 771 771 771 772 772 772 773
626 629 633 636 639 641 644 645 646 648 650 653 655 658 661 664 667 670 672 674 675 678 680 684 687 691 695 698 701 704 706 709 712 715 717 719 721 722 724 725 726 728 729 731 732 734 736 738 739 741 742 743 745 747 749 751 752 753 754 756 757 759 760 761 762 763 764 765 766 766 767 767 768 768 768 769 769 770 770 770 771 771 771 772 772 773
626 629 633 635 638 641 643 645 646 648 650 652 655 659 663 665 668 670 672 674 675 678 680 684 687 691 695 699 702 704 706 709 711 714 716 718 720 722 723 725 726 728 730 732 733 735 737 738 740 741 743 744 745 746 748 750 752 753 754 756 757 758 759 760 761 763 764 764 765 766 766 767 767 767 768 768 769 770 770 770 771 771 771 772 772 772
628 630 633 635 638 640 642 644 646 648 650 652 655 659 663 667 669 671 673 674 676 679 681 684 687 691 695 698 701 704 706 709 711 714 716 718 720 721 723 725 726 728 730 732 734 736 738 740 741 743 744 744 746 747 748 749 751 753 754 755 757 758 759 760 761 762 763 764 765 765 766 766 766 767 767 768 769 769 770 771 771 771 771 771 772 772
629 631 634 636 638 640 642 644 646 648 650 653 656 659 663 667 669 672 674 675 678 680 683 685 688 690 694 697 700 703 705 708 710 713 716 718 719 721 723 724 726 728 730 733 735 737 739 741 743 745 745 746 747 748 749 749 750 752 754 755 756 757 758 759 761 762 763 764 764 765 765 765 766 766 767 768 768 769 770 771 771 771 771 771 772 772
Wind_Speed
24 25 25 27 28 28 28 29 30 31 30 30 30 30 30 30 30 29 28 27 27 26 26 28 29 30 31 30 30 29 28 27 26 25 25 24 23 22 22 21 21 20 19 18 18 17 16 16 15 15 14 13 11 10 9 10 11 11 10 10 9 8 8 8 8 9 10 10 9 8 8 10 12 14 15 15 14 12 12 12 11 11 10 9 9 8
23 24 25 26 27 27 27 27 29 30 31 31 32 32 32 31 30 28 27 26 26 27 27 28 29 30 31 30 30 29 28 27 26 25 24 23 22 22 21 21 20 19 18 18 17 16 16 15 15 14 13 12 10 10 11 12 12 11 10 10 10 11 11 10 10 10 10 10 11 10 10 10 10 11 11 12 12 12 13 13 12 11 9 8 7 7
22 23 24 26 27 27 26 27 28 29 31 32 33 34 33 32 30 28 27 27 27 27 27 28 30 30 30 30 30 29 28 27 26 25 24 23 22 21 21 20 19 18 18 17 16 16 16 15 14 13 12 11 10 11 12 12 12 11 10 11 12 14 14 13 12 10 9 8 9 10 11 11 11 10 10 10 10 10 11 11 11 11 9 8 8 7
22 22 25 26 26 26 27 27 27 27 28 31 33 35 34 32 30 29 28 28 28 28 28 29 30 30 30 30 30 29 28 27 26 25 24 23 22 21 21 20 19 18 17 16 16 15 15 15 14 12 11 11 11 12 13 13 12 12 12 14 16 17 16 14 12 10 8 7 8 8 9 10 11 11 11 10 10 9 9 9 9 9 8 8 8 7
19 21 25 26 25 24 26 28 27 27 27 29 32 33 33 32 30 29 29 29 29 29 29 29 30 30 30 30 29 29 29 28 27 26 25 24 23 22 21 20 18 17 16 15 15 14 14 14 13 12 11 11 12 13 14 14 13 14 15 17 18 18 16 13 10 8 7 7 8 8 8 9 10 11 12 12 11 10 9 9 8 8 7 8 8 8
17 20 24 24 23 23 26 27 27 27 27 28 29 31 31 31 30 29 29 28 29 29 29 30 30 30 30 29 29 29 29 28 27 26 25 25 24 23 21 20 18 17 16 14 14 14 13 13 12 11 11 12 13 14 15 15 15 16 17 18 18 17 14 10 8 7 7 8 9 9 9 9 9 10 11 11 12 11 11 10 10 9 9 9 9 9
17 20 23 22 23 25 27 28 28 28 28 28 28 29 30 30 29 29 29 29 29 30 30 30 29 29 28 28 28 29 29 28 28 27 26 25 24 23 22 20 18 17 15 14 14 13 13 13 12 12 12 13 14 15 16 16 16 17 18 17 16 14 12 9 7 7 7 8 9 10 10 10 10 10 10 10 10 10 11 11 12 13 13 13 12 11
18 20 22 21 22 24 27 27 28 28 30 30 30 29 28 29 28 28 28 28 29 29 30 29 28 26 26 27 28 28 28 28 28 27 26 25 24 23 21 20 18 16 15 14 14 14 14 14 14 13 13 14 15 16 16 16 17 17 18 18 15 13 11 9 8 8 9 9 10 10 10 10 10 10 10 10 10 10 10 10 10 12 13 14 14 14
21 20 21 21 22 23 23 24 25 27 29 30 31 31 29 28 27 27 26 25 26 27 28 28 26 25 24 26 27 27 28 28 28 27 26 25 24 23 21 19 18 16 15 15 15 15 14 15 15 14 14 15 16 16 16 16 16 17 17 17 15 13 11 10 10 10 11 11 11 11 10 10 9 9 9 9 10 11 12 11 10 10 10 11 12 12
24 22 20 21 24 25 23 21 23 26 27 28 30 31 32 30 28 25 23 22 23 24 25 26 26 25 25 26 27 27 27 27 27 27 26 25 24 22 21 19 18 17 16 16 15 15 14 16 16 16 16 16 16 16 16 16 16 16 16 16 14 13 12 11 12 12 12 12 12 12 11 10 9 8 8 8 9 11 12 13 13 11 9 8 8 8
21 23 22 20 22 23 23 23 24 25 26 25 24 26 28 30 29 26 21 19 20 22 23 24 25 26 27 27 28 28 27 27 27 26 26 25 23 22 21 19 18 17 17 16 15 15 16 17 18 19 18 17 16 16 16 16 16 16 16 15 14 13 13 13 13 13 13 13 13 13 12 10 9 8 8 8 9 10 11 12 13 12 11 9 8 6
19 20 20 19 20 20 20 21 23 25 24 22 18 16 19 24 28 27 23 20 20 22 23 24 25 27 29 29 29 29 28 27 26 26 25 24 23 21 20 19 18 17 17 16 16 16 17 18 20 21 21 19 17 16 16 16 16 16 16 15 14 14 14 14 14 14 14 13 13 13 11 10 9 8 8 8 8 9 10 11 12 12 11 11 9 8
19 18 18 18 19 19 19 20 21 22 23 20 17 15 16 21 25 26 24 23 23 25 26 26 26 27 29 30 30 29 28 27 26 25 24 23 22 21 20 19 18 18 17 17 17 17 17 19 21 22 22 20 18 17 17 17 17 17 16 15 14 14 14 14 14 14 14 13 13 12 11 10 9 8 8 8 8 9 10 10 11 11 11 11 10 10
17 18 17 17 18 19 21 21 21 21 21 21 20 20 21 24 26 25 22 21 22 25 27 26 26 26 27 28 29 29 28 27 25 24 23 22 21 21 20 20 19 18 18 18 19 19 19 19 21 23 22 21 19 18 17 18 17 17 16 15 14 14 15 15 15 15 14 14 13 12 11 10 9 9 9 8 8 8 9 9 10 10 10 10 10 10
17 17 14 14 16 19 21 23 23 23 25 26 24 22 21 24 25 25 21 19 20 23 24 24 23 23 24 25 26 27 26 26 24 23 22 22 22 21 21 20 20 19 19 20 21 22 22 21 22 23 23 21 20 19 19 18 18 17 16 15 15 15 15 15 16 16 15 15 14 13 12 11 10 9 9 8 7 7 8 8 9 9 9 9 10 10
20 18 14 13 15 20 23 25 24 24 26 28 26 24 22 23 24 25 22 20 21 23 21 18 14 14 17 22 25 25 25 25 24 23 22 22 22 22 21 21 20 20 20 20 22 23 24 22 23 23 23 22 21 20 19 19 19 18 17 16 16 16 16 16 16 16 16 16 15 14 13 12 11 10 8 7 7 6 7 7 8 8 8 9 9 9
21 20 17 16 17 20 24 26 27 27 27 27 27 26 26 26 26 26 24 23 22 21 18 16 10 5 7 15 22 26 25 25 24 24 23 23 23 22 22 22 21 20 20 21 23 24 24 23 23 24 24 23 21 20 19 19 19 18 18 17 17 17 17 17 17 17 16 16 16 15 13 12 11 9 8 7 6 6 6 7 7 7 7 7 7 7
22 22 21 19 19 21 25 26 26 26 26 27 28 28 28 29 29 28 26 25 22 19 17 17 12 7 5 8 18 28 28 27 25 23 22 23 23 23 22 22 21 20 20 21 23 25 25 23 23 25 25 23 22 20 19 19 19 19 18 18 18 17 17 17 17 16 16 16 15 14 13 11 10 9 8 7 7 6 6 6 6 6 6 6 5 5
23 25 24 23 23 24 26 27 28 27 27 28 28 28 26 26 27 27 26 25 24 21 19 17 15 14 12 10 20 30 32 30 27 24 21 21 22 23 22 22 21 20 21 22 24 25 25 23 24 25 25 24 22 21 20 20 19 19 19 19 18 18 18 17 17 16 16 15 14 13 11 10 9 8 8 7 7 6 6 6 6 5 4 4 4 3
27 26 27 27 26 25 25 28 30 31 31 32 32 30 26 26 26 26 25 25 24 23 22 19 18 17 17 17 23 30 33 32 28 24 20 19 20 22 22 21 21 21 21 22 24 25 26 24 23 24 25 24 22 21 21 21 21 20 20 20 19 19 18 18 17 16 15 14 13 12 10 9 9 8 7 7 6 6 6 5 5 4 3 3 2 2
32 28 30 31 29 27 26 28 32 35 36 36 34 31 28 26 25 24 25 25 24 23 22 19 18 20 21 22 24 28 33 33 29 24 19 18 19 21 22 22 21 21 22 23 24 25 26 24 24 24 25 24 23 22 22 22 22 22 21 21 20 20 19 18 17 16 15 14 12 11 10 9 8 8 7 7 6 6 5 5 4 3 3 3 2 2
35 31 31 36 36 33 32 34 36 38 38 38 35 32 29 27 25 25 26 26 24 22 20 19 19 21 23 24 25 27 32 34 32 27 20 15 15 19 22 22 22 22 22 22 23 24 25 24 24 24 25 24 23 23 23 23 23 23 23 22 21 20 19 18 17 16 15 13 12 11 10 9 9 8 7 7 6 6 5 4 4 4 3 3 3 3
39 36 32 35 38 39 38 39 39 39 40 40 40 38 35 34 32 30 30 29 27 25 23 22 21 22 22 24 24 26 30 34 34 30 22 14 13 18 23 23 22 21 21 21 22 24 24 24 24 24 24 25 24 24 24 24 24 24 23 22 21 20 19 18 17 16 14 13 12 11 11 10 9 8 8 7 6 6 5 5 5 4 4 4 4 4
39 39 34 36 39 40 41 41 41 41 41 41 41 40 40 39 37 36 34 32 30 28 26 24 21 18 17 20 23 26 30 34 34 29 22 14 14 19 24 24 23 21 21 21 22 24 24 24 24 24 24 24 24 25 25 25 24 24 23 22 21 20 19 18 17 16 15 14 13 12 12 11 10 10 9 8 7 7 6 6 6 6 6 6 6 6
39 39 38 39 40 41 43 43 43 44 43 42 40 39 38 36 35 33 31 30 28 27 24 21 16 14 15 19 24 27 31 34 33 29 22 15 15 20 25 25 24 22 21 22 23 25 26 26 26 26 25 24 24 24 24 24 24 23 22 21 20 19 18 18 17 16 15 15 14 14 13 12 12 11 10 9 9 8 7 7 7 7 7 7 7 7
40 41 41 41 41 42 43 44 45 46 45 43 42 39 37 34 31 28 26 25 26 25 22 17 13 12 14 17 21 26 31 34 33 30 25 18 17 20 25 26 25 23 22 22 24 25 26 27 27 27 27 26 25 23 22 22 22 22 21 20 19 19 18 18 17 16 16 16 15 15 14 13 13 12 11 10 9 8 8 8 8 8 8 8 8 9
40 41 42 41 41 41 42 43 44 45 45 45 45 43 39 35 30 26 23 24 26 26 21 14 9 8 11 13 16 22 30 33 32 30 26 22 19 19 23 25 26 25 24 23 23 24 26 27 28 28 27 27 25 24 21 20 20 20 20 19 18 18 18 18 17 17 16 16 16 15 14 13 13 12 11 10 10 9 9 9 9 9 10 10 11 11
40 40 41 41 41 41 41 42 43 43 44 46 47 47 43 38 30 24 22 26 28 26 21 15 10 7 8 11 15 21 29 32 31 29 27 24 20 18 23 27 27 27 25 22 22 24 25 26 27 28 28 27 26 25 23 21 20 19 19 19 18 18 18 18 17 17 17 17 16 15 14 14 13 13 12 11 11 10 10 10 11 11 12 12 13 13
39 40 41 41 42 41 41 41 41 43 45 47 48 47 44 39 33 29 27 30 29 25 20 19 16 12 11 13 15 19 25 29 30 30 28 24 19 19 26 28 28 28 27 22 19 19 20 23 26 27 28 28 27 27 26 24 23 21 21 20 19 19 18 18 18 17 17 17 17 16 16 15 15 14 13 12 12 12 12 12 13 13 14 14 14 15
38 39 40 41 42 41 41 41 42 43 45 47 46 45 43 40 37 35 33 32 30 26 21 20 18 17 15 13 11 11 15 24 30 31 29 22 18 20 27 28 28 29 28 20 12 8 9 15 21 25 27 27 27 27 27 26 25 24 23 22 21 20 19 18 18 18 18 18 18 17 17 16 16 15 14 14 14 14 14 14 15 16 16 16 17 17
36 37 38 39 40 41 41 41 42 42 43 44 43 42 42 40 39 37 35 35 33 30 25 22 21 20 20 12 7 5 8 22 31 33 30 23 20 23 29 27 27 29 29 21 11 3 3 7 14 20 24 25 26 26 26 25 25 24 23 22 21 20 20 19 19 19 19 18 18 18 18 17 17 16 16 16 16 16 16 16 17 17 17 17 17 17
34 34 35 37 38 39 39 40 40 40 40 40 40 40 41 41 40 39 38 38 37 35 31 26 24 24 24 19 13 9 10 24 33 35 33 26 24 26 30 28 27 28 29 24 17 11 6 6 10 15 19 21 23 24 24 24 24 23 23 22 21 20 20 19 19 19 19 19 18 18 18 17 17 17 16 16 17 17 17 17 17 17 17 16 16 16
32 32 32 34 35 36 37 38 38 38 38 38 38 39 40 40 40 39 39 40 39 38 34 30 27 25 24 22 18 14 17 28 37 38 35 29 25 26 29 28 27 27 26 22 19 16 11 10 12 14 15 17 19 21 21 22 21 21 21 20 20 19 19 19 19 19 19 18 18 17 17 17 16 16 16 16 16 16 16 16 15 15 15 15 14 13
30 30 31 31 32 33 34 35 35 36 36 37 37 37 37 37 37 37 37 38 38 37 35 33 31 28 24 19 14 14 19 30 38 39 37 33 28 26 29 28 27 26 24 19 16 14 14 16 16 14 13 14 16 18 19 19 19 19 19 19 19 18 18 18 18 18 18 17 17 16 16 15 15 15 15 15 15 15 14 14 14 14 14 14 13 13
29 30 30 31 31 31 31 32 33 34 35 35 35 35 35 35 34 34 35 35 35 34 33 33 33 32 29 23 17 16 21 31 38 39 36 35 32 29 28 27 28 28 24 19 15 14 12 16 18 16 13 12 12 14 16 17 18 18 18 18 18 18 17 17 17 16 15 15 14 14 14 13 13 13 13 14 13 13 13 13 13 13 13 13 13 13
28 28 29 30 30 30 30 31 32 33 33 33 33 33 34 34 34 34 34 34 34 33 32 32 32 32 31 29 26 25 29 35 38 38 36 35 34 32 27 26 29 30 25 20 17 15 14 15 17 17 15 12 10 10 13 15 16 16 16 16 16 16 16 15 14 13 12 12 11 11 12 12 12 12 13 13 13 12 12 12 12 12 13 13 13 13
26 26 27 29 30 30 30 31 32 32 32 32 32 33 33 33 33 34 34 34 34 33 32 31 30 29 29 29 30 32 35 38 39 38 35 34 34 33 29 27 30 31 27 22 19 18 17 15 15 15 14 12 10 10 12 14 15 14 13 14 14 14 13 12 12 11 10 10 10 11 11 11 11 11 12 12 11 11 11 11 11 11 11 12 11 11
24 24 25 28 29 30 30 30 31 32 33 33 33 33 33 33 34 34 34 33 33 33 32 31 29 27 26 27 29 32 36 38 38 37 35 33 32 33 31 29 30 31 29 26 24 23 20 16 12 10 11 11 11 12 15 16 15 13 13 13 13 12 11 11 10 10 10 10 10 10 10 10 10 10 10 10 10 10 9 9 10 10 10 10 10 10
22 22 24 26 28 30 31 31 32 33 34 35 35 35 35 35 34 34 33 33 32 32 31 30 28 26 26 26 28 31 35 37 37 36 33 31 31 31 32 31 30 29 28 27 26 26 23 19 15 12 11 11 12 13 15 16 16 15 14 13 12 11 11 10 10 9 9 9 9 9 9 9 9 9 9 8 8 8 7 7 7 8 8 8 7 7
22 22 23 25 27 30 32 33 35 36 37 37 37 37 37 36 35 34 33 32 32 32 31 30 29 27 26 27 28 31 33 35 35 34 31 30 29 30 32 32 32 30 27 25 25 24 23 19 17 16 16 14 14 15 16 16 16 16 15 13 10 9 10 10 9 9 9 9 8 8 8 8 8 7 7 7 7 7 7 7 7 7 7 7 6 6
22 22 22 24 26 29 32 35 37 38 39 39 38 38 37 37 36 34 33 32 32 31 30 30 29 28 28 28 28 30 31 32 32 31 29 28 28 28 30 32 33 31 28 25 23 22 21 19 18 18 18 18 17 17 16 16 16 16 15 13 11 10 10 9 8 8 8 8 8 7 7 7 6 6 6 6 6 6 7 7 7 7 7 7 7 6
23 23 23 26 28 30 32 35 37 38 39 39 38 37 37 37 37 36 34 33 32 31 30 30 30 29 28 27 27 28 29 29 28 28 27 27 27 27 29 31 32 31 29 26 23 21 19 19 19 20 20 20 18 17 15 16 16 15 14 13 13 11 9 8 8 7 7 7 7 6 6 5 5 5 5 4 4 5 5 5 5 6 6 6 6 6
23 24 26 29 31 33 35 36 36 36 36 36 35 35 35 36 37 36 35 33 32 31 31 31 31 31 29 27 25 25 25 25 25 25 25 25 25 26 27 28 29 29 29 27 24 22 20 20 20 20 20 21 20 19 17 17 16 15 14 13 12 10 7 7 8 8 7 6 6 5 5 4 4 3 3 3 2 2 2 3 3 4 4 5 5 6
24 26 28 30 32 34 35 34 33 33 33 32 32 32 33 34 35 34 33 31 30 30 30 30 31 30 28 26 24 24 23 23 23 23 23 23 24 25 26 27 27 27 27 27 26 24 22 21 20 19 19 20 20 20 19 18 17 16 15 13 12 10 9 9 9 8 7 6 6 5 5 4 3 3 3 2 2 1 1 0 1 2 2 3 4 4
27 28 29 30 31 31 30 29 30 31 32 32 32 31 32 33 33 33 32 31 30 29 29 30 29 26 23 22 22 22 22 22 22 22 22 23 24 25 26 26 26 25 25 25 25 24 24 23 22 21 19 19 19 19 18 18 17 16 15 14 13 11 11 10 9 9 8 6 6 5 5 4 4 3 3 2 2 2 2 2 2 1 1 0 1 2
28 27 27 28 28 27 26 27 28 29 30 30 30 30 31 32 32 32 32 31 29 28 28 29 27 23 20 20 20 20 20 21 22 22 22 22 23 24 25 25 25 24 24 23 23 22 23 24 24 23 21 19 18 17 17 18 17 17 16 15 13 12 11 10 9 8 8 7 6 5 5 4 4 4 4 3 2 1 2 3 3 3 2 2 1 0
27 27 26 26 25 24 25 26 27 28 28 27 28 29 30 31 31 31 30 30 29 27 26 26 25 23 22 21 20 20 19 19 20 21 22 22 22 22 23 23 23 23 22 22 22 22 22 22 22 22 22 20 18 16 16 16 17 17 16 15 14 12 11 10 9 8 7 6 6 5 5 4 5 5 5 4 3 1 2 2 3 3 3 2 2 1
27 27 26 25 24 24 24 25 26 26 26 26 26 27 29 30 30 30 28 28 28 26 25 24 23 22 21 20 20 20 20 20 19 20 22 22 22 22 22 22 21 21 20 21 21 22 22 22 21 20 19 17 17 16 16 16 15 16 16 15 14 12 11 10 9 8 7 6 6 5 4 4 5 6 6 5 4 2 0 2 3 3 3 3 2 2
27 26 26 25 24 24 23 24 25 25 26 25 25 26 26 28 29 28 27 27 26 25 24 23 22 21 20 19 19 20 21 20 20 20 21 22 23 23 23 22 22 22 21 21 21 21 21 21 20 18 16 16 16 17 17 16 16 15 15 14 13 12 11 10 9 8 8 7 6 5 5 5 5 5 6 6 5 3 2 1 2 3 4 4 3 3
25 25 25 25 24 24 24 25 25 24 25 25 25 25 25 26 26 26 26 25 25 24 23 23 23 22 21 20 20 20 21 20 20 19 20 21 23 24 24 24 24 24 23 21 20 19 18 17 16 15 15 14 15 15 16 17 17 16 15 13 12 12 11 10 9 8 8 7 6 5 5 5 5 5 6 6 5 4 2 2 1 1 3 4 4 4
23 23 24 23 23 23 24 24 24 24 25 25 25 25 25 24 24 24 24 23 23 23 22 22 22 22 21 21 21 21 21 21 20 19 19 21 22 23 23 23 24 23 21 17 15 13 13 11 9 9 10 12 13 13 14 16 17 17 15 14 12 12 11 10 9 8 7 7 6 5 5 5 5 5 5 5 5 3 3 3 3 2 2 2 3 3
Wind_Direction
174 178 182 185 184 182 185 191 192 190 188 187 185 185 188 190 193 195 197 196 193 191 191 193 195 197 200 203 206 210 213 217 219 221 223 223 224 224 224 224 224 223 223 224 227 232 238 243 247 250 252 253 252 245 230 214 204 202 203 202 196 190 185 178 162 141 123 121 129 142 145 142 137 135 137 144 151 155 154 153 155 158 159 155 150 146
166 171 175 179 180 179 180 186 189 188 185 184 183 184 186 188 189 190 189 188 187 187 188 191 194 197 199 202 205 208 211 214 216 218 220 221 222 223 223 223 222 222 223 225 229 235 241 246 248 248 247 245 238 224 210 201 197 196 197 194 190 188 185 181 171 155 135 129 133 142 148 148 142 136 131 133 137 140 141 143 145 148 151 152 150 148
159 163 169 175 177 177 178 180 184 187 186 184 184 185 187 187 187 185 183 182 182 184 187 191 194 196 199 202 205 208 210 212 214 215 217 218 219 220 220 220 220 221 223 227 233 239 243 245 245 243 239 232 220 207 199 195 193 190 186 185 185 185 184 181 177 170 155 143 139 139 142 144 144 138 131 128 129 132 136 139 140 143 147 150 152 152
160 162 167 171 175 177 178 178 179 181 183 183 183 185 187 186 185 184 182 180 180 182 187 191 194 196 199 202 205 208 210 212 213 213 214 215 215 216 217 218 220 222 226 230 236 240 242 241 238 233 227 217 206 198 194 192 189 184 180 179 180 181 180 180 180 179 172 165 157 147 139 138 138 137 136 135 135 136 140 142 144 146 152 155 156 153
166 167 168 168 170 173 178 178 178 177 179 179 179 181 183 185 184 183 182 181 181 183 187 191 194 197 200 203 206 209 211 212 213 213 212 212 213 214 215 218 220 224 228 232 236 238 236 232 226 220 214 207 200 196 193 191 187 183 179 178 178 177 178 179 182 183 182 180 176 168 155 145 140 139 140 141 142 142 143 145 148 151 157 161 160 157
170 170 169 167 166 168 173 176 177 176 176 175 175 177 180 183 184 183 181 182 183 185 188 192 195 199 202 205 208 210 212 213 212 212 211 211 212 213 215 218 221 224 227 230 231 229 225 219 214 211 209 206 200 196 194 192 189 186 183 181 178 177 179 183 189 191 189 186 183 180 174 167 159 153 149 147 146 146 146 148 150 153 158 159 158 155
168 169 168 166 166 166 168 172 176 177 174 171 171 173 177 180 183 183 184 185 186 187 190 193 197 200 204 208 211 212 213 213 212 211 211 211 213 214 216 219 220 221 222 221 220 217 213 211 211 212 212 208 202 197 196 195 194 192 191 189 187 186 190 196 202 201 195 187 183 180 180 179 178 175 169 164 160 158 157 155 152 152 153 152 150 148
162 165 168 166 163 163 164 168 173 177 176 173 169 169 171 175 178 182 185 187 188 189 191 193 196 200 206 210 213 214 213 212 211 211 211 212 214 216 218 218 218 217 215 212 209 208 208 209 213 216 215 208 202 199 199 200 200 199 198 199 200 201 204 208 209 205 197 186 179 176 177 180 182 184 184 183 181 180 179 174 164 155 151 149 147 146
160 163 168 168 163 159 159 165 172 177 179 177 173 170 168 168 172 178 183 186 188 190 191 192 194 199 206 212 214 213 213 212 211 211 212 213 215 217 218 217 215 212 209 206 205 205 207 210 214 217 214 207 202 200 202 204 204 203 202 203 205 207 209 209 207 203 196 184 176 173 174 176 178 182 186 189 191 193 195 194 189 177 163 155 152 152
160 162 166 169 168 163 159 164 173 179 181 181 179 176 172 168 167 169 174 181 186 189 191 193 194 197 204 210 212 212 211 211 211 212 213 215 216 217 216 214 212 209 206 205 204 204 207 212 216 217 214 208 204 203 205 206 205 203 202 201 201 202 202 202 201 198 193 184 177 174 175 176 176 178 182 188 193 197 199 201 202 200 192 180 171 166
156 159 161 163 165 165 163 167 175 180 182 183 182 179 176 172 169 166 167 175 182 186 189 193 196 198 200 205 208 209 208 209 211 213 214 216 216 216 215 213 210 208 207 206 203 201 204 212 216 216 213 209 206 206 207 206 203 200 198 196 195 194 194 195 196 195 192 185 180 178 180 180 180 179 181 186 192 197 201 204 207 209 210 208 203 198
154 157 159 159 158 158 160 167 174 177 177 177 176 175 176 175 175 173 170 173 179 184 186 190 196 200 202 203 204 205 206 208 211 213 214 214 214 214 213 211 210 210 209 209 204 199 200 210 215 216 212 209 207 208 208 205 201 197 194 192 190 190 190 191 192 193 192 188 184 183 186 187 186 185 184 186 191 197 201 205 209 213 217 221 223 224
155 157 157 154 153 154 157 161 165 169 173 177 179 179 178 178 177 177 176 177 181 185 187 188 192 198 203 204 204 204 204 206 209 212 212 211 211 211 210 210 209 209 209 208 203 199 199 208 214 215 212 208 207 208 208 204 199 194 192 189 188 188 189 189 191 192 193 190 188 188 192 194 193 191 188 187 189 194 199 204 208 212 218 224 229 233
155 155 155 155 156 158 162 165 168 173 180 187 190 188 182 179 177 177 176 177 182 186 187 185 187 192 198 202 204 204 204 205 207 209 209 209 209 209 208 208 209 209 208 205 201 198 197 205 211 212 210 207 206 207 207 203 198 193 191 190 189 189 189 189 190 192 193 192 192 193 196 198 199 197 194 189 188 191 196 201 206 211 216 223 229 235
159 159 160 163 164 165 168 174 178 182 186 189 190 186 179 176 176 176 172 170 173 178 180 180 183 188 193 197 201 203 204 204 205 206 206 208 209 208 207 206 207 207 206 202 199 197 197 203 208 209 208 206 205 205 205 201 197 193 192 191 192 192 191 190 190 191 193 194 197 198 199 200 202 202 199 195 193 194 197 201 205 210 216 222 228 234
166 166 170 171 169 169 173 178 182 186 187 186 183 178 173 172 175 177 173 167 166 167 167 165 169 184 196 200 200 200 201 203 204 204 204 205 207 207 204 203 203 204 204 201 198 197 198 204 207 208 207 205 205 205 204 200 196 194 193 193 193 193 192 190 190 191 194 197 200 202 201 201 202 204 203 202 202 205 208 210 212 215 218 222 226 232
173 174 175 173 171 171 174 180 184 186 184 182 180 180 179 179 180 179 176 170 165 164 165 166 166 176 198 204 203 201 200 199 201 202 202 203 205 205 201 200 200 201 202 200 198 198 200 204 208 209 208 206 205 204 204 200 196 194 194 193 193 193 192 192 191 193 195 199 202 203 203 202 203 205 207 208 211 216 220 222 222 223 223 225 227 229
180 181 179 175 173 172 173 178 183 185 182 180 180 182 184 185 184 181 177 172 168 168 170 173 177 180 178 192 203 204 200 198 197 197 198 200 203 202 199 198 198 200 201 201 200 200 201 205 208 209 208 206 204 204 204 200 197 195 194 193 193 193 193 193 193 194 196 199 202 203 203 203 205 208 210 212 216 220 223 224 224 223 223 223 224 226
185 184 182 180 176 173 172 177 181 182 181 180 179 179 181 184 184 182 180 177 176 174 174 177 184 188 187 187 199 202 200 196 193 191 190 195 199 199 196 195 197 200 203 203 203 203 203 205 207 208 208 205 204 204 204 201 198 196 195 194 193 193 193 194 195 195 197 199 200 202 202 205 207 210 212 214 217 220 221 222 220 219 217 217 218 221
191 187 185 181 175 170 171 178 182 184 182 181 179 177 178 180 181 182 182 183 183 182 180 181 187 192 193 194 198 199 197 193 189 185 185 188 192 194 192 193 196 199 202 204 204 204 205 206 206 206 206 205 204 204 205 203 200 197 196 194 194 193 194 194 195 195 196 197 198 200 202 205 208 210 211 214 216 218 219 217 215 212 209 209 214 221
196 192 188 181 174 170 174 179 183 185 184 181 178 176 177 179 180 183 185 186 186 185 184 186 192 196 197 195 196 197 195 189 183 179 179 180 183 187 189 191 193 196 198 202 203 204 206 206 204 203 204 204 204 205 205 203 199 197 195 194 194 194 194 194 195 195 195 195 197 199 201 204 206 207 210 213 216 217 215 212 207 203 203 207 215 227
197 194 188 182 178 175 176 179 182 185 184 181 178 177 179 180 181 184 186 186 185 185 187 190 194 197 198 197 198 196 193 188 184 179 174 168 171 180 185 188 190 191 192 195 199 202 203 203 202 201 202 204 205 206 204 201 197 195 194 193 193 193 193 194 194 194 194 194 195 197 200 202 203 205 208 212 214 213 210 206 203 203 209 217 227 239
198 194 186 182 180 179 178 179 182 185 187 186 185 185 187 187 186 186 187 187 187 186 185 186 189 192 195 196 194 191 188 187 186 182 172 164 167 175 179 183 184 184 185 186 189 193 196 196 194 194 197 200 203 203 201 198 195 193 192 192 192 192 192 193 193 193 193 193 195 197 199 201 202 204 207 209 210 209 207 207 210 216 223 231 240 250
197 194 186 182 180 180 181 181 184 186 189 191 193 195 195 194 193 192 191 189 187 184 182 181 178 176 180 184 183 181 183 184 184 181 172 164 165 171 174 178 177 175 176 178 180 182 185 185 184 183 185 190 194 197 196 194 192 192 192 191 191 191 191 192 192 192 192 194 196 199 200 201 203 205 207 208 209 210 212 217 223 230 237 245 252 259
193 191 187 183 182 183 185 186 188 190 191 193 195 197 196 194 191 189 188 185 181 176 172 165 156 152 159 167 171 176 181 182 181 179 172 162 158 164 169 174 173 168 166 169 171 173 174 174 175 175 174 176 181 187 190 191 191 191 191 191 191 191 191 191 192 193 194 197 201 203 204 204 206 208 210 212 214 218 224 231 239 245 252 259 264 269
191 191 189 186 185 186 189 191 193 194 195 195 194 193 190 186 182 178 174 172 170 166 160 154 151 155 159 163 170 176 179 180 180 179 174 162 154 157 164 170 170 165 160 159 161 163 165 165 167 169 169 170 172 177 183 188 191 191 192 192 192 191 191 192 193 195 198 203 206 208 208 209 212 215 218 221 226 233 241 249 257 264 270 275 279 281
191 192 191 189 187 188 190 193 195 197 198 198 196 193 189 184 176 167 163 166 167 165 160 161 162 161 162 168 176 180 179 178 179 179 176 165 155 154 161 166 166 162 155 152 153 156 158 159 161 164 167 168 169 171 175 182 187 190 191 192 192 192 192 193 196 199 203 208 210 211 211 214 218 223 228 233 241 249 256 265 273 279 284 285 286 287
192 193 194 192 190 190 191 193 195 197 199 200 199 197 193 186 176 167 169 173 172 169 168 170 169 164 168 177 181 181 179 178 177 177 174 165 156 154 161 163 162 159 152 148 150 153 155 155 157 161 164 167 168 168 169 172 177 183 186 188 190 191 193 196 199 203 209 213 215 215 217 220 225 231 237 244 251 258 264 270 275 278 281 280 279 279
192 193 194 194 192 191 192 193 196 198 201 201 201 199 197 193 188 183 183 180 176 173 175 177 176 173 171 170 172 176 180 180 177 174 171 161 154 155 160 160 160 158 153 145 143 146 149 151 154 157 161 165 167 168 168 168 171 176 180 184 187 190 193 197 202 207 212 216 219 220 222 226 230 235 242 248 253 258 261 264 265 266 267 266 266 266
187 188 190 191 191 191 191 192 195 199 200 201 201 200 202 202 201 198 194 187 181 177 179 180 178 171 163 155 154 169 185 186 179 173 169 160 153 155 159 159 160 160 157 148 138 132 143 150 153 155 158 163 166 168 169 171 173 176 181 184 188 191 194 199 204 208 213 216 219 222 225 228 232 237 242 246 250 253 255 256 257 257 258 259 260 261
179 180 182 185 187 188 189 192 194 195 196 197 199 201 204 206 207 205 201 194 188 184 183 181 176 170 163 156 152 169 193 192 182 172 170 162 157 158 160 160 162 164 163 159 152 140 150 158 158 157 158 161 164 168 171 173 176 179 183 187 190 193 197 201 205 209 212 215 218 221 224 228 233 237 242 245 248 250 252 253 255 257 258 260 263 265
174 176 176 178 180 183 185 188 188 188 188 190 194 198 201 204 205 205 202 198 194 190 186 181 177 173 172 175 177 178 183 187 180 174 172 165 159 161 164 164 164 166 167 167 167 165 152 161 167 165 161 162 164 167 171 175 178 181 185 188 191 195 199 203 206 210 213 216 220 223 227 231 235 240 244 247 250 252 254 256 258 260 262 264 266 268
169 170 171 172 174 176 179 181 181 181 182 184 188 192 196 198 200 201 201 199 196 192 187 181 177 175 177 179 179 175 174 178 177 175 173 167 161 160 165 165 166 167 169 169 170 167 159 157 161 164 164 165 167 169 173 176 180 183 186 189 193 197 202 206 209 212 216 220 224 228 232 236 241 245 248 251 254 256 258 260 261 262 263 264 264 264
162 162 163 164 165 167 170 173 174 175 176 179 182 186 188 190 192 193 193 193 191 190 188 183 179 175 174 173 166 159 163 173 174 174 174 170 163 161 164 166 166 167 167 165 159 152 149 151 153 154 157 164 170 173 176 179 183 186 190 193 196 201 205 210 213 217 221 225 228 232 237 241 245 248 251 254 256 258 260 261 261 262 262 262 260 258
154 155 155 156 157 158 160 163 165 168 170 173 176 179 181 183 183 183 183 183 183 184 185 184 182 178 175 169 161 154 158 169 172 173 175 172 167 163 164 167 168 168 165 160 150 140 136 145 151 153 152 156 166 176 181 183 186 190 195 198 201 205 209 213 217 220 225 229 232 236 240 243 247 250 252 254 256 258 259 260 260 260 259 259 259 257
148 148 150 152 152 153 154 156 158 161 164 167 170 172 174 175 175 175 175 176 177 178 178 179 179 178 177 174 169 162 161 166 169 172 176 176 172 167 164 169 171 170 166 160 151 143 139 143 150 154 154 152 159 173 183 187 189 191 196 200 204 207 211 215 217 220 224 228 233 238 242 244 248 251 253 255 257 258 259 259 259 259 259 258 258 258
146 147 148 150 151 151 152 153 155 157 159 161 163 166 167 168 168 168 169 170 171 172 171 171 171 172 173 174 171 166 164 165 168 172 175 178 176 171 167 170 172 172 169 162 154 147 142 141 145 151 156 159 161 166 175 184 187 188 192 197 201 204 207 212 214 217 221 227 233 239 243 247 250 252 254 256 257 257 258 258 258 258 257 257 257 257
147 148 150 151 152 152 152 153 154 156 157 157 158 159 160 160 160 160 161 163 164 164 163 163 163 163 165 167 166 164 164 165 168 171 174 177 177 175 170 170 172 174 173 169 161 153 146 143 145 152 161 163 162 164 170 175 177 179 187 192 195 197 201 205 210 215 221 227 234 239 244 247 249 250 252 253 254 255 256 256 257 257 257 256 255 254
148 149 151 153 153 154 154 154 155 156 156 155 154 154 154 153 153 153 154 155 156 157 157 156 155 155 157 159 160 161 162 165 168 171 173 175 177 177 174 171 171 173 175 173 168 162 156 154 155 159 159 154 152 159 169 172 172 174 180 186 190 195 200 203 208 214 220 225 231 236 240 242 243 245 247 249 250 250 250 252 255 258 258 257 255 254
149 149 151 153 155 155 155 155 155 155 153 151 150 149 148 147 146 146 147 148 149 150 151 151 150 149 150 152 154 157 160 163 167 169 171 174 177 179 177 173 171 171 172 171 169 167 163 159 158 158 155 151 149 153 160 166 171 174 175 173 177 189 199 201 205 210 216 220 223 227 231 235 238 240 243 246 247 248 246 244 247 253 259 258 258 258
148 147 149 150 152 153 153 153 152 151 149 146 144 143 143 142 140 139 139 140 141 142 144 145 144 142 142 144 147 151 156 159 162 166 169 172 175 178 178 175 172 170 168 166 164 163 161 157 153 151 151 151 150 151 155 161 168 172 172 166 168 178 189 193 197 201 207 212 216 220 224 230 235 239 242 245 247 247 247 248 249 252 257 256 256 252
147 146 145 146 147 147 147 147 146 145 144 142 141 140 141 141 140 138 136 134 133 135 138 138 135 131 128 130 136 143 149 153 157 161 165 169 172 174 174 172 170 168 165 161 156 154 154 153 151 150 151 151 149 146 149 155 161 165 166 166 167 171 177 185 190 193 194 199 205 210 215 221 226 230 234 238 242 247 249 250 251 253 253 253 252 248
144 144 144 145 145 145 144 142 141 140 140 139 139 139 141 142 141 140 137 133 131 132 134 136 134 129 122 119 122 129 137 145 151 156 160 164 168 169 169 168 167 167 165 158 150 145 147 149 149 150 155 157 153 147 146 150 154 158 162 166 164 158 151 167 179 184 185 188 191 194 197 201 205 208 213 216 222 232 239 245 248 249 250 250 249 248
138 139 140 141 142 141 140 139 139 139 138 137 136 137 139 140 140 139 136 133 131 131 132 132 131 127 120 116 115 118 124 134 142 149 154 159 162 164 164 162 163 164 165 160 152 146 145 143 144 147 153 157 155 150 147 149 151 154 157 160 159 156 154 159 164 167 171 177 179 177 179 180 182 184 184 176 163 150 135 175 223 239 244 250 250 251
134 135 136 137 138 138 138 139 139 138 137 135 134 135 136 138 138 138 135 132 130 130 131 131 128 122 117 116 117 117 118 123 131 138 145 151 156 159 159 158 159 160 162 161 158 154 148 142 140 143 148 151 151 149 147 149 151 153 154 156 158 160 162 163 161 160 160 168 168 165 166 167 168 163 145 119 88 60 46 44 42 38 25 264 248 251
132 133 135 137 138 139 140 139 137 135 132 131 131 132 134 135 136 136 134 132 130 130 131 131 128 124 123 124 125 122 120 119 122 128 134 140 147 152 155 156 156 157 156 156 157 158 155 148 144 142 142 141 139 141 147 151 151 151 154 157 159 159 159 160 161 163 165 164 161 158 159 165 166 150 123 114 105 42 23 28 31 32 33 34 29 359
134 135 136 138 138 138 137 136 134 131 129 127 128 129 132 133 134 133 133 132 131 130 130 128 126 125 127 130 131 130 127 123 122 123 128 133 138 143 146 149 152 154 154 152 151 151 150 148 147 145 142 135 130 131 140 149 152 152 153 156 157 153 150 154 160 163 161 158 153 151 154 161 156 143 133 132 137 120 7 8 15 26 33 34 33 32
136 137 137 137 136 135 134 133 131 129 126 125 126 127 130 132 132 132 131 131 130 129 128 125 124 124 127 130 132 133 131 129 126 125 126 129 133 136 139 141 143 145 146 146 146 144 143 143 143 143 142 139 134 132 136 142 147 150 152 152 150 146 144 150 156 157 154 151 148 146 147 150 146 141 139 133 128 127 250 334 346 360 16 23 26 24
135 136 136 136 135 134 134 133 130 128 126 125 124 125 128 131 132 132 132 131 130 129 128 128 127 128 128 129 131 131 130 129 128 128 128 129 131 132 133 134 134 134 133 133 135 136 138 138 139 139 139 139 138 136 138 139 142 145 145 144 143 142 142 147 151 153 151 148 145 143 143 142 138 136 136 125 119 126 158 262 319 334 348 355 360 360
132 133 135 134 134 134 134 132 130 127 126 125 125 126 128 129 130 131 131 131 130 130 130 131 131 131 131 131 132 131 131 130 129 129 130 132 132 132 131 132 131 128 124 123 124 125 125 124 126 131 136 137 137 138 140 142 142 141 139 138 138 139 141 145 149 151 149 144 141 139 139 134 131 130 131 122 117 120 140 162 207 300 321 333 338 340
129 130 131 131 131 131 131 130 128 127 127 127 127 128 129 129 129 129 129 129 129 130 131 131 131 131 131 132 133 133 133 133 132 133 135 136 136 135 134 134 132 128 124 121 120 120 116 108 103 108 120 133 139 142 144 147 145 141 138 138 139 140 142 147 151 152 148 143 139 137 132 124 118 117 118 119 118 119 136 152 163 187 245 290 309 319